Regional Weather Roundup
Issued by NWS Bismarck, ND

Home | Current Version | Previous Version | Text Only | Print | Product List | Glossary On
Versions: 1 2 3 4 5 6 7 8 9 10 11 12 13 14 15 16 17 18 19 20 21 22 23 24 25 26 27 28 29 30 31 32 33 34 35 36 37 38 39 40 41 42 43 44 45 46 47 48 49 50
000
ASUS43 KBIS 301102
RWRBIS

NWR BROADCAST TEXT
NATIONAL WEATHER SERVICE BISMARCK ND
600 AM CDT TUE AUG 30 2016

NOTE: "FAIR" INDICATES FEW OR NO CLOUDS BELOW 12,000 FEET WITH NO
SIGNIFICANT WEATHER AND/OR OBSTRUCTIONS TO VISIBILITY.


CITY           SKY/WX    TMP DP  RH WIND       PRES   REMARKS
WILLISTON      CLEAR     50  42  74 CALM      30.21S
MINOT          CLEAR     53  47  79 SW3       30.24R
MINOT AFB      CLEAR     51  45  78 NE3       30.24R
BISMARCK       CLEAR     46  45  96 CALM      30.26S
DICKINSON      CLEAR     52  47  83 S13       30.23S
GARRISON         N/A     47  46  97 E3        30.24S
HETTINGER ARPT CLEAR     56  50  80 SE8       30.26S
JAMESTOWN      CLEAR     52  48  86 CALM      30.25S
CARRINGTON     FAIR      50  46  87 CALM      30.28S
HAZEN          FAIR      41  41 100 CALM      30.27S
OAKES            N/A    N/A N/A N/A MISG        N/A
STANLEY        FAIR      50  48  93 NE5       30.27R
$$

CITY           SKY/WX    TMP DP  RH WIND       PRES   REMARKS
GRAND FORKS    CLEAR     49  46  90 NW5       30.23S
GRAND FORKS AF CLEAR     49  47  94 NW3       30.24S
DEVILS LAKE    CLEAR     52  49  89 CALM      30.27R
FARGO          CLEAR     50  46  86 CALM      30.24R
CAVALIER       FAIR      50  48  93 W3        30.24S
GRAFTON        FAIR      50  50 100 CALM      30.26S
GWINNER        FAIR      54  52  94 N7        30.25S
LANGDON        FAIR      48  46  93 CALM      30.26S
ROLLA          FAIR      46  45  93 W3        30.29R
$$

CITY           SKY/WX    TMP DP  RH WIND       PRES   REMARKS
ABERDEEN       CLEAR     55  52  89 N7        30.24R
MOBRIDGE       MOCLDY    58  50  75 CALM      30.22R
BUFFALO          N/A     61  53  75 E5        30.19S
RAPID CITY     MOCLDY    64  62  93 E7        30.25S
GLASGOW        CLOUDY    62  45  53 E10       30.13R
SIDNEY         CLEAR     56  46  69 CALM      30.20S
WOLF POINT     PTCLDY    55  44  66 E6        30.16S
GLENDIVE       CLEAR     63  50  62 SE5       30.19F
MILES CITY     PTCLDY    69  48  47 SE16      30.12F
BAKER          CLEAR     60  49  66 SE12      30.23F
$$

CITY           SKY/WX    TMP DP  RH WIND       PRES   REMARKS
BILLINGS       PTCLDY    61  47  59 NW8       30.12S
GREAT FALLS    PTCLDY    56  44  64 N7        30.10S
$$





USA.gov is the U.S. government's official web portal to all federal, state and local government web resources and services.